Location: Newark
(41.5333°N, 14.5500°E)
Time: 13:57:38
(UTC+00:00)

X-37B - Pass Details

Date: 15 March 2021
Orbit: 380 x 394 km, 45.0° (Epoch: 07 April)

Event Time Altitude Azimuth Distance (km) Brightness Sun altitude
Rises 18:35:14 0° 269° (W) 2,268 6.0 -16.9°
Reaches altitude 10° 18:37:21 10° 275° (W) 1,417 4.7 -17.3°
Maximum altitude 18:40:27 48° 351° (N) 522 1.3 -17.9°
Enters shadow 18:41:11 38° 34° (NE) 611 1.3 -18.0°
